Time,TemperatureF,DewpointF,PressureIn,WindDirection,WindDirectionDegrees,WindSpeedMPH,WindSpeedGustMPH,Humidity,HourlyPrecipIn,Conditions,Clouds,dailyrainin,SoftwareType,DateUTC
2013-05-04 00:08:00,39.5,37.0,30.15,ENE,78,14.0,-999.0,91,-99.99,,,0.00,weatherlink.com 1.10,2013-05-04 04:08:00,
2013-05-04 00:23:00,38.8,36.0,30.15,NE,47,20.0,-999.0,91,-99.99,,,0.00,weatherlink.com 1.10,2013-05-04 04:23:00,
2013-05-04 00:38:00,38.1,36.0,30.14,East,79,20.0,-999.0,91,-99.99,,,0.00,weatherlink.com 1.10,2013-05-04 04:38:00,
2013-05-04 00:53:00,37.5,35.0,30.14,East,82,14.0,-999.0,91,-99.99,,,0.00,weatherlink.com 1.10,2013-05-04 04:53:00,
2013-05-04 01:08:00,37.0,34.0,30.13,NE,51,26.0,-999.0,90,-99.99,,,0.00,weatherlink.com 1.10,2013-05-04 05:08:00,
2013-05-04 01:23:00,36.7,33.0,30.12,ENE,70,21.0,-999.0,86,-99.99,,,0.00,weatherlink.com 1.10,2013-05-04 05:23:00,
2013-05-04 01:38:00,36.3,32.0,30.11,ENE,59,13.0,-999.0,83,-99.99,,,0.00,weatherlink.com 1.10,2013-05-04 05:38:00,
2013-05-04 01:53:00,36.1,32.0,30.10,East,84,20.0,-999.0,84,-99.99,,,0.00,weatherlink.com 1.10,2013-05-04 05:53:00,
2013-05-04 02:08:00,36.0,31.0,30.10,East,90,12.0,-999.0,82,-99.99,,,0.00,weatherlink.com 1.10,2013-05-04 06:08:00,
2013-05-04 02:23:00,35.9,30.0,30.10,ENE,67,16.0,-999.0,78,-99.99,,,0.00,weatherlink.com 1.10,2013-05-04 06:23:00,
2013-05-04 02:38:00,35.5,28.0,30.09,ENE,71,16.0,-999.0,75,-99.99,,,0.00,weatherlink.com 1.10,2013-05-04 06:38:00,
2013-05-04 02:53:00,35.4,27.0,30.09,NE,45,25.0,-999.0,72,-99.99,,,0.00,weatherlink.com 1.10,2013-05-04 06:53:00,
2013-05-04 03:08:00,35.1,27.0,30.09,ENE,69,23.0,-999.0,73,-99.99,,,0.00,weatherlink.com 1.10,2013-05-04 07:08:00,
2013-05-04 03:23:00,35.1,27.0,30.09,ENE,67,23.0,-999.0,71,-99.99,,,0.00,weatherlink.com 1.10,2013-05-04 07:23:00,
2013-05-04 03:39:00,35.6,25.0,30.08,NE,55,24.0,-999.0,66,-99.99,,,0.00,weatherlink.com 1.10,2013-05-04 07:39:00,
2013-05-04 03:54:00,35.8,24.0,30.08,NE,55,16.0,-999.0,62,-99.99,,,0.00,weatherlink.com 1.10,2013-05-04 07:54:00,
2013-05-04 04:09:00,35.8,23.0,30.09,ENE,59,20.0,-999.0,61,-99.99,,,0.00,weatherlink.com 1.10,2013-05-04 08:09:00,
2013-05-04 04:24:00,35.7,23.0,30.09,NNE,25,12.0,-999.0,60,-99.99,,,0.00,weatherlink.com 1.10,2013-05-04 08:24:00,
2013-05-04 04:39:00,35.5,22.0,30.09,NE,54,23.0,-999.0,59,-99.99,,,0.00,weatherlink.com 1.10,2013-05-04 08:39:00,
2013-05-04 04:54:00,35.4,22.0,30.09,ENE,59,19.0,-999.0,59,-99.99,,,0.00,weatherlink.com 1.10,2013-05-04 08:54:00,
2013-05-04 05:09:00,35.9,23.0,30.09,ENE,78,16.0,-999.0,59,-99.99,,,0.00,weatherlink.com 1.10,2013-05-04 09:09:00,
2013-05-04 05:24:00,35.8,23.0,30.09,East,98,15.0,-999.0,60,-99.99,,,0.00,weatherlink.com 1.10,2013-05-04 09:24:00,
2013-05-04 05:39:00,36.0,25.0,30.10,ENE,67,11.0,-999.0,64,-99.99,,,0.00,weatherlink.com 1.10,2013-05-04 09:39:00,
2013-05-04 05:54:00,36.4,27.0,30.10,ENE,66,11.0,-999.0,70,-99.99,,,0.00,weatherlink.com 1.10,2013-05-04 09:54:00,
2013-05-04 06:09:00,36.5,29.0,30.10,ENE,78,9.0,-999.0,74,-99.99,,,0.00,weatherlink.com 1.10,2013-05-04 10:09:00,
2013-05-04 06:24:00,36.4,30.0,30.10,NE,39,16.0,-999.0,77,-99.99,,,0.00,weatherlink.com 1.10,2013-05-04 10:24:00,
2013-05-04 06:39:00,36.9,31.0,30.11,East,80,11.0,-999.0,78,-99.99,,,0.00,weatherlink.com 1.10,2013-05-04 10:39:00,
2013-05-04 06:54:00,36.3,30.0,30.11,East,84,14.0,-999.0,79,-99.99,,,0.00,weatherlink.com 1.10,2013-05-04 10:54:00,
2013-05-04 07:09:00,36.7,31.0,30.11,East,79,15.0,-999.0,81,-99.99,,,0.00,weatherlink.com 1.10,2013-05-04 11:09:00,
2013-05-04 07:24:00,37.8,33.0,30.11,ENE,70,16.0,-999.0,83,-99.99,,,0.00,weatherlink.com 1.10,2013-05-04 11:24:00,
2013-05-04 07:39:00,38.3,34.0,30.11,ENE,68,12.0,-999.0,84,-99.99,,,0.00,weatherlink.com 1.10,2013-05-04 11:39:00,
2013-05-04 07:54:00,39.8,36.0,30.11,NE,48,7.0,-999.0,85,-99.99,,,0.00,weatherlink.com 1.10,2013-05-04 11:54:00,
2013-05-04 08:09:00,40.0,36.0,30.12,ENE,58,15.0,-999.0,84,-99.99,,,0.00,weatherlink.com 1.10,2013-05-04 12:09:00,
2013-05-04 08:24:00,40.2,36.0,30.12,NE,38,10.0,-999.0,85,-99.99,,,0.00,weatherlink.com 1.10,2013-05-04 12:24:00,
2013-05-04 08:39:00,41.3,37.0,30.12,ENE,69,12.0,-999.0,84,-99.99,,,0.00,weatherlink.com 1.10,2013-05-04 12:39:00,
2013-05-04 08:54:00,41.6,37.0,30.11,ENE,71,10.0,-999.0,83,-99.99,,,0.00,weatherlink.com 1.10,2013-05-04 12:54:00,
2013-05-04 09:09:00,40.6,36.0,30.11,ENE,65,14.0,-999.0,84,-99.99,,,0.00,weatherlink.com 1.10,2013-05-04 13:09:00,
2013-05-04 09:24:00,42.2,38.0,30.12,East,84,20.0,-999.0,84,-99.99,,,0.00,weatherlink.com 1.10,2013-05-04 13:24:00,
2013-05-04 09:39:00,41.5,37.0,30.11,ENE,66,16.0,-999.0,83,-99.99,,,0.00,weatherlink.com 1.10,2013-05-04 13:39:00,
2013-05-04 09:54:00,40.4,36.0,30.11,ENE,70,20.0,-999.0,83,-99.99,,,0.00,weatherlink.com 1.10,2013-05-04 13:54:00,
2013-05-04 10:09:00,41.5,36.0,30.11,ENE,67,22.0,-999.0,82,-99.99,,,0.00,weatherlink.com 1.10,2013-05-04 14:09:00,
2013-05-04 10:24:00,43.7,38.0,30.11,ENE,76,21.0,-999.0,80,-99.99,,,0.00,weatherlink.com 1.10,2013-05-04 14:24:00,
2013-05-04 10:39:00,44.2,38.0,30.11,NE,40,21.0,-999.0,78,-99.99,,,0.00,weatherlink.com 1.10,2013-05-04 14:39:00,
2013-05-04 10:54:00,44.3,36.0,30.11,East,80,22.0,-999.0,72,-99.99,,,0.00,weatherlink.com 1.10,2013-05-04 14:54:00,
2013-05-04 11:09:00,45.8,33.0,30.11,ENE,63,20.0,-999.0,61,-99.99,,,0.00,weatherlink.com 1.10,2013-05-04 15:09:00,
2013-05-04 11:39:00,46.8,33.0,30.12,East,91,15.0,-999.0,59,-99.99,,,0.00,weatherlink.com 1.10,2013-05-04 15:39:00,
2013-05-04 11:54:00,48.3,31.0,30.13,ENE,69,22.0,-999.0,51,-99.99,,,0.00,weatherlink.com 1.10,2013-05-04 15:54:00,
2013-05-04 12:09:00,49.1,28.0,30.12,ENE,63,25.0,-999.0,45,-99.99,,,0.00,weatherlink.com 1.10,2013-05-04 16:09:00,
2013-05-04 12:24:00,49.9,29.0,30.12,ENE,58,10.0,-999.0,44,-99.99,,,0.00,weatherlink.com 1.10,2013-05-04 16:24:00,
2013-05-04 12:39:00,50.5,27.0,30.12,East,85,13.0,-999.0,41,-99.99,,,0.00,weatherlink.com 1.10,2013-05-04 16:39:00,
2013-05-04 12:54:00,50.5,29.0,30.12,NE,42,12.0,-999.0,44,-99.99,,,0.00,weatherlink.com 1.10,2013-05-04 16:54:00,
2013-05-04 13:09:00,50.6,27.0,30.12,NE,49,20.0,-999.0,41,-99.99,,,0.00,weatherlink.com 1.10,2013-05-04 17:09:00,
2013-05-04 13:24:00,50.5,25.0,30.12,ENE,65,21.0,-999.0,37,-99.99,,,0.00,weatherlink.com 1.10,2013-05-04 17:24:00,
2013-05-04 13:39:00,50.0,22.0,30.11,East,84,24.0,-999.0,33,-99.99,,,0.00,weatherlink.com 1.10,2013-05-04 17:39:00,
2013-05-04 13:54:00,50.0,22.0,30.12,NE,54,18.0,-999.0,34,-99.99,,,0.00,weatherlink.com 1.10,2013-05-04 17:54:00,
2013-05-04 14:09:00,51.3,18.0,30.11,NE,53,24.0,-999.0,27,-99.99,,,0.00,weatherlink.com 1.10,2013-05-04 18:09:00,
2013-05-04 14:24:00,51.3,21.0,30.11,ENE,75,14.0,-999.0,30,-99.99,,,0.00,weatherlink.com 1.10,2013-05-04 18:24:00,
2013-05-04 14:39:00,51.4,24.0,30.11,NNE,22,15.0,-999.0,34,-99.99,,,0.00,weatherlink.com 1.10,2013-05-04 18:39:00,
2013-05-04 14:54:00,50.4,28.0,30.12,NE,35,15.0,-999.0,43,-99.99,,,0.00,weatherlink.com 1.10,2013-05-04 18:54:00,
2013-05-04 15:09:00,50.1,32.0,30.12,ENE,61,9.0,-999.0,50,-99.99,,,0.00,weatherlink.com 1.10,2013-05-04 19:09:00,
2013-05-04 15:24:00,49.7,33.0,30.12,ENE,60,20.0,-999.0,53,-99.99,,,0.00,weatherlink.com 1.10,2013-05-04 19:24:00,
2013-05-04 15:40:00,48.6,35.0,30.11,ENE,61,10.0,-999.0,59,-99.99,,,0.00,weatherlink.com 1.10,2013-05-04 19:40:00,
2013-05-04 15:55:00,48.9,35.0,30.11,ENE,68,15.0,-999.0,59,-99.99,,,0.00,weatherlink.com 1.10,2013-05-04 19:55:00,
2013-05-04 16:10:00,49.1,36.0,30.11,ENE,75,12.0,-999.0,60,-99.99,,,0.00,weatherlink.com 1.10,2013-05-04 20:10:00,
2013-05-04 16:25:00,48.8,36.0,30.11,ENE,71,19.0,-999.0,62,-99.99,,,0.00,weatherlink.com 1.10,2013-05-04 20:25:00,
2013-05-04 16:40:00,48.8,36.0,30.10,East,86,19.0,-999.0,62,-99.99,,,0.00,weatherlink.com 1.10,2013-05-04 20:40:00,
2013-05-04 16:55:00,48.7,37.0,30.10,East,87,24.0,-999.0,64,-99.99,,,0.00,weatherlink.com 1.10,2013-05-04 20:55:00,
2013-05-04 17:10:00,48.2,38.0,30.10,NE,53,13.0,-999.0,67,-99.99,,,0.00,weatherlink.com 1.10,2013-05-04 21:10:00,
2013-05-04 17:25:00,48.0,39.0,30.10,East,81,19.0,-999.0,70,-99.99,,,0.00,weatherlink.com 1.10,2013-05-04 21:25:00,
2013-05-04 17:40:00,48.2,39.0,30.10,ENE,59,13.0,-999.0,71,-99.99,,,0.00,weatherlink.com 1.10,2013-05-04 21:40:00,
2013-05-04 17:55:00,48.3,39.0,30.09,ESE,105,18.0,-999.0,71,-99.99,,,0.00,weatherlink.com 1.10,2013-05-04 21:55:00,
2013-05-04 18:10:00,48.0,39.0,30.10,East,84,12.0,-999.0,71,-99.99,,,0.00,weatherlink.com 1.10,2013-05-04 22:10:00,
2013-05-04 18:25:00,47.6,39.0,30.10,ENE,67,11.0,-999.0,73,-99.99,,,0.00,weatherlink.com 1.10,2013-05-04 22:25:00,
2013-05-04 18:40:00,47.2,40.0,30.10,ENE,62,18.0,-999.0,75,-99.99,,,0.00,weatherlink.com 1.10,2013-05-04 22:40:00,
2013-05-04 18:55:00,46.4,40.0,30.09,ENE,62,13.0,-999.0,78,-99.99,,,0.00,weatherlink.com 1.10,2013-05-04 22:55:00,
2013-05-04 19:10:00,45.8,40.0,30.10,ENE,61,12.0,-999.0,79,-99.99,,,0.00,weatherlink.com 1.10,2013-05-04 23:10:00,
2013-05-04 19:25:00,45.3,40.0,30.10,ENE,70,19.0,-999.0,81,-99.99,,,0.00,weatherlink.com 1.10,2013-05-04 23:25:00,
2013-05-04 19:40:00,44.8,40.0,30.10,ENE,76,22.0,-999.0,82,-99.99,,,0.00,weatherlink.com 1.10,2013-05-04 23:40:00,
2013-05-04 19:55:00,44.2,40.0,30.10,NE,51,20.0,-999.0,84,-99.99,,,0.00,weatherlink.com 1.10,2013-05-04 23:55:00,
2013-05-04 20:10:00,43.9,40.0,30.11,ENE,74,12.0,-999.0,85,-99.99,,,0.00,weatherlink.com 1.10,2013-05-05 00:10:00,
2013-05-04 20:25:00,43.6,39.0,30.10,East,88,15.0,-999.0,85,-99.99,,,0.00,weatherlink.com 1.10,2013-05-05 00:25:00,
2013-05-04 20:40:00,43.3,40.0,30.10,NE,45,15.0,-999.0,87,-99.99,,,0.00,weatherlink.com 1.10,2013-05-05 00:40:00,
2013-05-04 20:55:00,43.2,40.0,30.11,ENE,59,7.0,-999.0,88,-99.99,,,0.00,weatherlink.com 1.10,2013-05-05 00:55:00,
2013-05-04 21:10:00,43.1,40.0,30.11,East,100,15.0,-999.0,88,-99.99,,,0.00,weatherlink.com 1.10,2013-05-05 01:10:00,
2013-05-04 21:25:00,42.9,40.0,30.11,East,86,16.0,-999.0,89,-99.99,,,0.00,weatherlink.com 1.10,2013-05-05 01:25:00,
2013-05-04 21:40:00,42.8,40.0,30.12,ENE,72,12.0,-999.0,89,-99.99,,,0.00,weatherlink.com 1.10,2013-05-05 01:40:00,
2013-05-04 21:55:00,42.5,40.0,30.11,ENE,73,12.0,-999.0,89,-99.99,,,0.00,weatherlink.com 1.10,2013-05-05 01:55:00,
2013-05-04 22:10:00,42.3,40.0,30.12,NE,38,15.0,-999.0,90,-99.99,,,0.00,weatherlink.com 1.10,2013-05-05 02:10:00,
2013-05-04 22:25:00,42.2,40.0,30.12,NE,53,19.0,-999.0,90,-99.99,,,0.00,weatherlink.com 1.10,2013-05-05 02:25:00,
2013-05-04 22:40:00,41.9,39.0,30.12,East,90,20.0,-999.0,90,-99.99,,,0.00,weatherlink.com 1.10,2013-05-05 02:40:00,
2013-05-04 22:55:00,41.4,39.0,30.11,NE,46,16.0,-999.0,90,-99.99,,,0.00,weatherlink.com 1.10,2013-05-05 02:55:00,
2013-05-04 23:10:00,41.1,38.0,30.11,NE,50,25.0,-999.0,89,-99.99,,,0.00,weatherlink.com 1.10,2013-05-05 03:10:00,
2013-05-04 23:25:00,40.6,37.0,30.11,ENE,68,24.0,-999.0,88,-99.99,,,0.00,weatherlink.com 1.10,2013-05-05 03:25:00,
2013-05-04 23:40:00,40.4,38.0,30.10,ENE,59,16.0,-999.0,89,-99.99,,,0.00,weatherlink.com 1.10,2013-05-05 03:40:00,
2013-05-04 23:55:00,40.2,38.0,30.10,ENE,63,22.0,-999.0,90,-99.99,,,0.00,weatherlink.com 1.10,2013-05-05 03:55:00,